{"data":{"norad_id":63449,"epoch":"2026-05-25T03:40:14.176704Z","epoch_age_seconds":71890,"freshness":"FRESH","line1":"1 63449U 25069S   26145.15294186  .00019415  00000+0  45424-3 0  9993","line2":"2 63449  53.1579 145.0180 0001202  33.6707 326.4375 15.42174178 64873","mean_motion":15.42174178,"eccentricity":0.0001202,"inclination_deg":53.1579,"raan_deg":145.018,"arg_perigee_deg":33.6707,"mean_anomaly_deg":326.4375,"bstar":0.00045424,"rev_number":6487,"period_min":93.374666788125,"perigee_km":438.87436355729,"apogee_km":440.51337009767,"semimajor_km":6817.8308668275,"source":"CELESTRAK","updated_at":"2026-05-25T13:38:20.001358Z"}}